Location: ?man?ra
(21.1102°N, 82.3273°E)
Time: 12:16:47
(UTC+00:00)

Daily predictions for brighter satellites

Satellite Brightness Start Highest point End
(mag) Time Altitude Azimuth Time Altitude Azimuth Time Altitude Azimuth
Cosmos 1302 Rocket 4.0 13:17:21 10° NNW 13:22:35 88° ENE 13:27:49 10° SSE
Cosmos 1500 Rocket 3.6 13:20:36 10° S 13:24:49 57° E 13:29:02 10° NNE
Cosmos 292 Rocket 3.8 13:20:41 10° NNW 13:25:26 89° WSW 13:30:11 10° SSE
Yuri Rocket 3.1 13:21:19 10° WSW 13:26:29 88° SSE 13:30:43 10° ENE
CENTAUR R/B 3.5 13:24:08 10° SE 13:27:22 16° ESE 13:30:47 10° ENE
CZ-2D R/B 3.8 13:25:06 10° S 13:28:51 61° W 13:32:36 10° NNW
CSL-04 Rocket 3.8 13:24:34 10° SSE 13:29:42 54° ENE 13:34:50 10° N
Iridium 2 3.6 13:26:51 10° N 13:30:35 77° E 13:34:18 10° S
Delta 202 4.3 13:23:39 10° W 13:32:19 73° S 13:38:14 10° E
Cosmos 1441 Rocket 3.9 13:31:58 10° SSE 13:35:21 30° E 13:38:41 10° NNE
ARGOS 3.9 13:33:59 10° SE 13:38:44 33° ENE 13:43:28 10° NNE
HJ-1C 3.5 13:36:15 10° SSE 13:39:29 51° ENE 13:42:45 10° N
Okean-O 4.1 13:35:57 10° S 13:40:04 40° W 13:44:14 10° NNW
Skynet4D Del rocket 4.3 13:35:20 10° WNW 13:40:29 46° N 13:45:42 10° ENE
SJ-11-01 4.4 13:36:29 10° SSE 13:41:04 54° ENE 13:45:41 10° N
Cosmos 1328 Rocket 3.9 13:38:40 10° N 13:43:05 70° W 13:47:29 10° S
COSMOS 2406 4.4 13:37:51 10° SW 13:43:22 48° WNW 13:48:54 10° N
Cosmos 2082 Rocket 2.3 13:38:16 10° S 13:43:49 55° ESE 13:49:21 10° NNE
CZ-4 R/B 2.7 13:40:19 10° S 13:43:58 41° W 13:47:42 10° NNW
Sakura Rocket 4.4 13:36:38 10° WNW 13:44:46 66° SSW 13:49:55 14° SE
Ariane Rocket 4.1 13:41:42 11° SE 13:45:30 25° ENE 13:49:33 10° NNE
GPS 2-15 Rocket1 4.4 13:41:57 10° SW 13:45:37 23° SSE 13:48:11 15° ESE
Cosmos 1782 3.0 13:43:02 10° N 13:46:57 50° E 13:50:51 10° SSE
Cosmos 1805 Rocket 3.8 13:44:31 10° SSE 13:48:45 48° E 13:53:02 10° NNE
Cosmos 407 Rocket 3.5 13:44:19 10° S 13:49:39 83° ESE 13:54:58 10° NNE
SL-08 R/B 4.4 13:43:45 10° S 13:49:58 73° E 13:56:07 10° N
Cosmos 1190 Rocket 4.0 13:46:25 10° S 13:51:35 67° ESE 13:56:49 10° NNE
CZ-2C R/B 2.7 13:48:42 10° NNE 13:53:46 50° E 13:58:54 10° S
CZ-3B R/B 3.4 13:51:10 10° W 13:54:09 60° S 13:59:38 17° ESE
Cosmos 1992 Rocket 4.0 13:50:11 10° N 13:55:21 63° ENE 14:00:29 10° SSE
Cosmos 1140 Rocket 3.4 13:56:46 10° S 14:01:59 83° ESE 14:07:14 10° NNE
deb Kosmos-1763 3.9 13:59:23 10° S 14:02:55 67° ESE 14:06:31 10° NNE
Cosmos 1023 Rocket 4.5 13:59:08 10° SSW 14:04:24 89° WNW 14:09:41 10° NNE
FREGAT/IRIS 4.2 14:05:47 18° NE 14:05:47 18° NE 14:06:58 10° NNE
Cosmos 1633 Rocket 4.0 14:06:01 25° ESE 14:06:47 26° E 14:10:29 10° NE
NOSS 3-2 (A) 3.2 14:01:36 10° SSW 14:06:57 86° WNW 14:12:45 10° NNE
Aureole 1 Rocket 4.1 14:01:12 10° S 14:07:01 63° E 14:14:28 10° NNE
NOSS 3-2 (C) 3.1 14:10:52 10° SSW 14:16:08 59° ESE 14:21:47 10° NE
ATLAS 5 CENTAUR R/B 2.8 14:12:19 10° NNW 14:18:34 53° ENE 14:22:13 28° SE
Meteor 2-6 Rocket 4.2 14:16:36 10° N 14:22:14 71° E 14:26:34 18° SSE
Cosmos 2084 Rocket 3.4 14:19:19 10° S 14:23:18 51° ESE 14:27:21 10° NE
USA 267 3.3 14:18:37 10° NE 14:25:10 81° NW 14:31:42 10° SW
FUSE 4.3 14:20:52 10° WNW 14:26:11 59° N 14:28:42 30° ENE
Cosmos 1980 Rocket 4.1 14:24:02 10° NE 14:25:55 13° ENE 14:25:55 13° ENE
Cosmos 1934 Rocket 4.1 14:23:57 15° SSE 14:29:04 53° E 14:35:14 10° NNE
CZ-2C R/B 4.4 14:26:31 10° SSW 14:30:56 34° W 14:35:15 10° NW
Cosmos 1656 3.6 14:25:26 10° N 14:30:56 68° ENE 14:33:07 37° SE
H-2A R/B 3.1 14:27:46 10° S 14:32:44 44° W 14:37:33 10° NNW
IRS-1A Rocket 4.2 14:34:37 24° SSE 14:38:07 88° WSW 14:43:50 10° NNW
OBJECT-B 3.2 14:40:31 16° NNE 14:40:31 16° NNE 14:41:20 10° N
Cosmos 1697 Rocket 3.2 14:35:01 10° N 14:40:14 39° ENE 14:40:23 39° ENE
Sich 1 4.1 14:36:55 10° SSW 14:41:08 45° W 14:45:24 10° N
CZ-2C R/B 3.6 14:36:39 10° N 14:41:09 81° WNW 14:44:27 18° SSW
USA 186 4.1 14:42:42 16° NW 14:42:42 16° NW 14:43:25 10° NW
Cosmos 1727 Rocket 4.3 14:35:53 10° NNW 14:42:09 67° W 14:48:24 10° S
SJ-6B 2.9 14:43:07 62° SSW 14:43:42 77° WSW 14:47:44 10° NNW
Cosmos 2228 Rocket 4.2 14:41:32 10° NNW 14:45:40 42° W 14:48:36 18° SSW
SL-8 R/B 4.2 14:41:53 10° NNW 14:46:30 45° NE 14:46:31 45° NE
Resurs 01 Rocket 3.4 14:55:04 21° NNE 14:55:04 21° NNE 14:56:51 10° N
GPS 2-17 Rocket1 4.1 14:50:43 10° W 14:54:08 34° SW 14:54:08 34° SW
VEP-3 3.5 14:51:51 10° W 14:57:34 70° SSW 15:02:03 40° ESE
SPOT 3 Rocket 3.7 14:59:50 60° NE 14:59:50 60° NE 15:04:27 10° N
Meteor 1-27 Rocket 3.7 14:54:27 10° N 15:00:24 76° E 15:00:51 72° SE
Cosmos 972 4.3 14:56:49 10° NNW 15:01:26 80° NNW 15:01:26 80° NNW
BREEZE-M DEB (TANK) 4.3 15:05:12 10° NW 15:06:46 21° WNW 15:06:46 21° WNW
ATLAS 2A CENTAUR R/B 4.0 14:21:12 10° SW 15:09:09 66° SSE 15:12:52 47° ESE
Cosmos 1812 4.3 15:06:26 10° NNW 15:09:22 34° WNW 15:09:22 34° WNW
CENTAUR R/B 3.5 15:12:15 10° SW 15:17:18 40° WNW 15:23:02 10° N
CZ-3A R/B 3.6 14:45:21 10° W 15:18:09 89° SSW 15:20:48 57° ESE
Cosmos 1605 Rocket 4.0 15:25:29 76° NW 15:25:29 76° NW 15:31:17 10° N
Cosmos 2123 Rocket 4.1 15:23:30 10° N 15:28:51 68° N 15:28:51 68° N
ATLAS 5 CENTAUR R/B 4.1 15:26:18 10° SW 15:49:35 13° E 15:53:07 10° E
Skynet4D Del rocket 4.5 15:28:06 10° WNW 15:32:06 45° NW 15:32:06 45° NW
ATLAS 5 CENTAUR R/B 4.5 15:58:22 10° WNW 16:03:07 20° WSW 16:03:48 20° WSW
Cosmos 1980 Rocket 4.1 16:05:16 10° NNW 16:07:42 26° NW 16:07:42 26° NW
Atlas Centaur 2 4.5 20:33:48 23° NE 20:33:48 23° NE 20:36:30 10° ENE
IDEFIX/ARIANE 42P 4.3 21:17:11 10° NNE 21:19:43 29° NNE 21:19:43 29° NNE
Aurora 2 Rocket 4.3 21:25:15 65° NW 21:26:14 69° N 21:36:45 10° E
Cosmos 1844 Rocket 3.9 21:29:03 35° NNE 21:29:03 35° NNE 21:32:09 10° NNE
Lacrosse 5 rocket 3.4 21:46:37 27° E 21:46:37 27° E 21:49:31 10° ENE
ATLAS 3B CENTAUR R/B 3.5 21:36:47 23° WNW 21:46:47 78° NNE 21:53:22 10° ESE
Intelsat 5-1 Rocket 4.1 21:57:28 48° SSW 22:00:03 62° SSE 22:23:04 10° ENE
USA 281 3.7 21:57:15 10° NNE 22:03:39 55° ESE 22:06:52 29° S
Cosmos 1953 Rocket 4.3 21:59:21 10° N 22:03:41 51° E 22:03:51 51° E
ATLAS 2AS CENTAUR R/B 4.3 22:09:49 10° S 22:16:35 36° ESE 22:23:40 10° NE
Cosmos 1386 Rocket 4.3 22:11:41 10° N 22:17:41 85° E 22:22:51 15° S
Atlas Centaur 2 3.7 22:16:24 24° NW 22:19:55 39° N 22:27:12 10° ENE
Helios 1B 4.4 22:23:47 82° SSW 22:23:55 85° WSW 22:28:15 10° NNW
Meteosat 1 Rocket2 4.1 22:23:05 40° WNW 22:25:09 57° NNW 22:29:59 10° ENE
Cosmos 883 Rocket 4.4 22:24:24 45° SSW 22:26:13 66° W 22:32:26 10° N
SeaSat 1 2.4 22:21:22 10° NNE 22:26:14 63° WNW 22:26:43 59° W
Centaur AC-72 3.0 22:25:40 43° WSW 22:27:35 63° S 22:38:01 10° ESE
MSX 4.4 22:24:50 10° N 22:30:04 37° WNW 22:30:11 37° WNW
SWIFT 3.5 22:30:45 30° SSE 22:30:45 30° SSE 22:34:16 10° ESE
Cosmos 494 Rocket 3.8 22:27:09 10° NNW 22:32:21 86° W 22:37:34 10° SSE
DELTA 2 R/B (1) 3.5 22:32:18 49° WSW 22:33:53 86° NW 22:39:30 10° NE
PSLV R/B 3.7 22:32:24 10° N 22:36:37 52° WNW 22:36:42 52° W
Aureole 2 Rocket 4.2 22:38:07 17° SE 22:39:15 22° E 22:41:33 10° NE
Meteor 1-31 Rocket 4.2 22:40:21 10° NNE 22:43:52 35° E 22:47:21 10° SSE
Cosmos 1745 Rocket 4.1 22:38:01 10° NNW 22:43:56 48° W 22:48:07 19° SSW
Cosmos 1484 Rocket 3.8 22:42:29 10° NNE 22:46:02 42° E 22:49:37 10° S
GPS 2-12 Rocket1 3.4 22:47:27 38° SW 22:48:56 55° S 22:53:37 10° E
Hubble Space Telescope 2.4 22:46:51 18° NW 22:48:57 28° N 22:52:34 10° ENE
CZ-2C R/B 2.6 22:45:31 10° N 22:49:57 46° WNW 22:51:33 33° SW
deb Chang Zheng 4 3.5 22:45:41 10° N 22:49:58 63° WNW 22:51:59 30° SSW
DELTA 4 R/B 4.0 22:42:21 23° SW 22:51:23 52° SSE 22:55:53 10° E
TSX-5 3.6 22:52:34 43° WNW 22:52:34 43° WNW 22:55:33 10° N
Cosmos 1812 Rocket 3.4 22:50:24 14° S 22:54:04 90° SW 22:58:24 10° N
CZ-4B R/B 2.2 22:57:31 10° SSE 23:00:42 50° ENE 23:03:50 10° N
ADEOS Rocket 4.3 22:55:13 10° SSE 23:02:27 55° ENE 23:09:59 10° N
Delta 142 4.3 23:02:35 26° SW 23:03:09 27° SSW 23:06:43 10° SSE
ADEOS 3.6 22:58:39 10° N 23:03:45 58° WNW 23:08:32 12° SSW
Cosmos 2278 Rocket 2.2 23:01:43 16° SSW 23:06:16 64° WNW 23:11:53 10° N
H-2A R/B 3.0 23:08:45 23° WSW 23:09:08 24° W 23:12:27 10° NW
Cosmos 1076 Rocket 4.4 23:07:20 10° N 23:11:35 52° E 23:15:50 10° SSE
Cosmos 1400 Rocket 2.8 23:09:27 11° SSW 23:13:12 58° W 23:17:02 10° N
Cosmos 1455 2.4 23:11:26 13° SSW 23:14:40 47° W 23:18:24 10° N
Chandra Rocket (1) 2.9 23:08:42 17° WSW 23:16:56 77° SSE 23:20:41 10° ENE
CZ-4B R/B 3.3 23:14:28 10° NNE 23:18:52 70° ESE 23:23:03 10° S
Cosmos 1825 4.2 23:16:23 10° NNE 23:19:45 31° E 23:23:06 10° SSE
ASTEX 1 3.5 23:15:19 10° N 23:20:13 79° E 23:25:08 10° S
ASTRO E2 2.9 23:20:01 16° SW 23:23:00 62° SSE 23:26:55 10° ENE
Cosmos 1709 Rocket 4.3 23:18:11 10° NNW 23:23:50 40° W 23:29:27 10° SSW
Lacrosse 5 rocket 3.2 23:22:17 14° W 23:24:41 20° NW 23:28:02 10° N
ALOS 2.3 23:20:29 10° N 23:25:04 59° WNW 23:29:39 10° SSW
SEDSat Delta rocket 4.1 23:19:58 14° WSW 23:25:40 80° SSE 23:32:29 10° ENE
ERS-2 3.7 23:25:25 15° WSW 23:26:18 16° W 23:28:37 10° WNW
Cosmos 1689 Rocket 3.4 23:24:05 10° SSE 23:26:51 42° ENE 23:29:36 10° N
DELTA 2 R/B(2) 4.1 23:25:37 14° SW 23:28:53 86° SE 23:31:31 10° NE
Meteor 2-10 Rocket 4.3 23:30:17 10° SW 23:34:46 31° W 23:39:25 10° NNW
ATLAS 2A CENTAUR R/B 2.9 23:38:52 10° WSW 23:39:52 12° SW 23:40:45 10° S
COSMOS 2455 4.1 23:34:27 10° S 23:40:04 43° ESE 23:45:42 10° NE
CREW DRAGON DEMO-1 DEB 2.8 23:37:18 10° SW 23:40:19 67° NW 23:43:22 10° NNE
SAR-Lupe-4 4.3 23:37:48 10° SSW 23:41:00 32° W 23:44:14 10° NW
Cosmos 1315 Rocket 2.9 23:37:55 10° S 23:42:01 89° W 23:46:09 10° N
Cosmos-2242 3.2 23:38:00 10° SSW 23:42:14 52° W 23:46:30 10° N
NOSS 3-4 (A) 3.9 23:37:59 10° SW 23:43:28 40° WNW 23:49:03 10° N
NOSS 3-4 (C) 3.9 23:38:06 10° SW 23:43:36 40° WNW 23:49:11 10° N
ATLAS 2A CENTAUR R/B 2.9 23:40:53 10° WSW 23:43:49 29° S 23:51:39 10° SE
USA 81 4.2 23:39:08 10° N 23:44:26 86° E 23:49:42 10° S
Nadezhda 1 Rocket 4.1 23:39:11 10° SSW 23:45:31 68° W 23:51:52 10° N
GPS 2-04 Rocket1 2.4 23:42:06 10° WSW 23:45:39 88° NNW 23:49:23 10° ENE
Cosmos 2058 3.5 23:41:56 10° NNW 23:45:46 36° W 23:49:38 10° SSW
Cosmos 2251 Rocket 4.1 23:42:06 10° N 23:47:26 66° ENE 23:52:44 10° SSE
